TimeMDT,TemperatureF,Dew PointF,Humidity,Sea Level PressureIn,VisibilityMPH,Wind Direction,Wind SpeedMPH,Gust SpeedMPH,PrecipitationIn,Events,Conditions,WindDirDegrees,DateUTC
12:55 AM,28.0,23.0,81,30.41,10.0,WNW,6.9,-,N/A,,Clear,290,2012-10-05 06:55:00
1:55 AM,25.0,21.0,85,30.41,10.0,West,6.9,-,N/A,,Clear,270,2012-10-05 07:55:00
2:55 AM,26.1,21.9,84,30.39,10.0,WNW,6.9,-,N/A,,Clear,290,2012-10-05 08:55:00
3:55 AM,27.0,21.9,81,30.39,10.0,West,5.8,-,N/A,,Clear,270,2012-10-05 09:55:00
4:55 AM,28.0,23.0,81,30.38,10.0,West,4.6,-,N/A,,Clear,280,2012-10-05 10:55:00
5:55 AM,28.0,23.0,81,30.40,10.0,WSW,4.6,-,N/A,,Clear,250,2012-10-05 11:55:00
6:55 AM,28.0,24.1,85,30.41,10.0,WNW,4.6,-,N/A,,Scattered Clouds,300,2012-10-05 12:55:00
7:55 AM,28.0,24.1,85,30.44,10.0,West,4.6,-,N/A,,Clear,260,2012-10-05 13:55:00
8:55 AM,36.0,25.0,64,30.44,10.0,WNW,9.2,-,N/A,,Clear,300,2012-10-05 14:55:00
9:55 AM,42.1,23.0,47,30.43,10.0,NNW,12.7,-,N/A,,Clear,330,2012-10-05 15:55:00
10:55 AM,43.0,21.9,43,30.43,10.0,NNW,12.7,20.7,N/A,,Mostly Cloudy,340,2012-10-05 16:55:00
11:55 AM,44.1,21.0,40,30.42,10.0,NNW,9.2,-,N/A,,Mostly Cloudy,330,2012-10-05 17:55:00
12:55 PM,46.0,21.9,39,30.40,10.0,NW,13.8,23.0,N/A,,Partly Cloudy,320,2012-10-05 18:55:00
1:55 PM,50.0,21.9,33,30.38,10.0,NW,10.4,18.4,N/A,,Scattered Clouds,320,2012-10-05 19:55:00
2:55 PM,46.9,21.0,36,30.37,10.0,WNW,10.4,19.6,N/A,,Overcast,300,2012-10-05 20:55:00
3:55 PM,46.9,21.0,36,30.36,10.0,NNW,12.7,20.7,N/A,,Mostly Cloudy,330,2012-10-05 21:55:00
4:55 PM,48.9,21.0,33,30.36,10.0,NNW,11.5,-,N/A,,Mostly Cloudy,330,2012-10-05 22:55:00
5:55 PM,46.0,21.0,37,30.38,10.0,WNW,6.9,-,N/A,,Mostly Cloudy,300,2012-10-05 23:55:00
6:55 PM,39.9,21.0,47,30.40,10.0,NNW,6.9,-,N/A,,Scattered Clouds,330,2012-10-06 00:55:00
7:55 PM,36.0,19.9,52,30.40,10.0,NW,9.2,-,N/A,,Clear,320,2012-10-06 01:55:00
8:55 PM,33.1,19.9,59,30.41,10.0,North,6.9,-,N/A,,Clear,350,2012-10-06 02:55:00
9:55 PM,27.0,18.0,69,30.42,10.0,West,3.5,-,N/A,,Clear,280,2012-10-06 03:55:00
10:55 PM,26.1,18.0,71,30.42,10.0,WNW,3.5,-,N/A,,Clear,290,2012-10-06 04:55:00
11:55 PM,26.1,19.0,75,30.42,10.0,NW,3.5,-,N/A,,Clear,320,2012-10-06 05:55:00